Regional Weather Roundup
Issued by NWS Midland/Odessa, TX

Home | Current Version | Previous Version | Text Only | Print | Product List | Glossary On
Versions: 1 2 3 4 5 6 7 8 9 10 11 12 13 14 15 16 17 18 19 20 21 22 23 24 25 26 27 28 29 30 31 32 33 34 35 36 37 38 39 40 41 42 43 44 45 46 47 48 49 50
000
ASUS44 KMAF 230610
RWRMAF
MIDLAND AREA WEATHER ROUNDUP
NATIONAL WEATHER SERVICE MIDLAND TX
100 AM CDT WED AUG 23 2017

...IN SOUTHWEST TEXAS AND SOUTHEAST NEW MEXICO...

CITY           SKY/WX    TMP DP  RH WIND       PRES   REMARKS
ALPINE         PTCLDY    67  62  85 SW3       30.27S
ANDREWS          N/A     68  63  83 E8        30.19F
ARTESIA        CLOUDY    73  64  73 N7        30.21R
BIG SPRING     CLOUDY    69  65  86 CALM      30.16F
CARLSBAD       CLOUDY    74  68  81 E7        30.17R
DRYDEN           N/A     79  62  56 NE6       30.05R
FORT STOCKTON  CLOUDY    80  62  54 SE5       30.11S
GUAD PASS      CLOUDY    72  61  68 NE15      30.29F
HOBBS          PTCLDY    66  64  94 SE7       30.22R
MARFA          CLOUDY    66  61  84 N5        30.26S
MIDLAND AIRPK  CLOUDY    71  66  84 CALM      30.17F
MIDLAND INTL   CLOUDY    72  66  81 E8        30.16S
ODESSA         CLOUDY    70  67  90 E12       30.16F
PECOS          MOCLDY    79  65  60 NE15G21   30.09F
PRESIDIO       FAIR      83  62  48 N3        30.11S
SEMINOLE       CLOUDY    66  64  91 SE6       30.21S
SNYDER         LGT RAIN  69  66  90 S9        30.08F
WINK           CLOUDY    73  66  78 E13       30.11S
$$
...OTHER STATIONS IN TEXAS...

CITY           SKY/WX    TMP DP  RH WIND       PRES   REMARKS
ABILENE        CLOUDY    72  68  87 NW10      30.10F
AMARILLO       CLOUDY    66  63  90 CALM      30.21S
AUSTIN         CLEAR     81  70  69 S5        30.01S
BROWNSVILLE    CLEAR     79  77  94 CALM      29.97F
CORPUS CHRISTI PTCLDY    78  76  93 SE6       29.98S
DALLAS FTW     MOCLDY    85  70  60 S3        29.97F
DEL RIO        CLEAR     86  64  47 E12       29.98S
EL PASO        MOCLDY    80  62  54 E5        30.14S
HOUSTON INT    PTCLDY    81  74  79 SW3       29.99S
LUBBOCK        PTCLDY    67  64  90 NW6       30.18S
SAN ANGELO     LGT RAIN  73  67  81 N14       30.12R
SAN ANTONIO    CLEAR     80  68  66 SE6       30.03S
WACO           CLEAR     84  67  56 S12       29.99S
WICHITA FALLS  NOT AVBL
$$
...OTHER LOCATIONS IN NEW MEXICO...

CITY           SKY/WX    TMP DP  RH WIND       PRES   REMARKS
ALAMOGORDO     CLOUDY    79  59  50 W6        30.17S
ALBUQUERQUE    TSTM      71  58  63 E18G28    30.31R
CANNON AFB     CLOUDY    66  66 100 N9        30.27F
CLOVIS         CLOUDY    66  64  93 N6        30.26F
HOLLOMAN AFB   CLOUDY    78  62  57 N6        30.17F
ROSWELL        CLOUDY    71  63  75 N9        30.22S
RUIDOSO        CLOUDY    63  59  88 SE10      30.44S
SANTA FE       MOCLDY    64  56  75 N8        30.39R
TRUTH OR CONSE CLOUDY    78  62  57 CALM      30.19F
TUCUMCARI      CLOUDY    70  68  93 CALM      30.24F
$$




USA.gov is the U.S. government's official web portal to all federal, state and local government web resources and services.